Regional Weather Roundup
Issued by NWS

Home | Current Version | Previous Version | Text Only | Print | Product List | Glossary Off
Versions: 1 2 3 4 5 6 7 8 9 10 11 12 13 14 15 16 17 18 19 20 21 22 23 24 25 26 27 28 29 30 31 32 33 34 35 36 37 38 39 40 41 42 43 44 45 46 47 48 49 50

000
ASUS45 KBOU 050807
RWRCO

WEATHER ROUNDUP FOR COLORADO
NATIONAL WEATHER SERVICE DENVER/BOULDER CO
200 AM MDT THU MAY 05 2016

NOTE: "FAIR" INDICATES FEW OR NO CLOUDS BELOW 12000 FEET WITH NO
SIGNIFICANT WEATHER AND/OR OBSTRUCTIONS TO VISIBILITY.

COZ001>005-013-030-031-050900-
...NORTHWEST COLORADO...

CITY           SKY/WX    TMP DP  RH WIND       PRES   REMARKS
CRAIG          FAIR      38  33  82 SE3       30.19R
HAYDEN         FAIR      46  28  49 E12       30.20S
MEEKER         FAIR      46  30  53 NE5       30.20S
MOUNT WERNER   NOT AVBL
STEAMBOAT SPGS FAIR      44  28  53 CALM      30.23S
WALDEN         FAIR      32  23  69 SE6       30.30S WCI  26
$$

COZ006>008-011-050900-
...WEST CENTRAL VALLEYS...

CITY           SKY/WX    TMP DP  RH WIND       PRES   REMARKS
GRAND JUNCTION FAIR      55  34  45 E15       30.09S
MONTROSE       FAIR      51  30  44 SE9       30.19S
EAGLE          FAIR      45  28  53 CALM      30.26S
RIFLE          FAIR      48  33  56 SW3       30.17S
DELTA          NOT AVBL
NUCLA          NOT AVBL
$$

COZ017>023-064>068-050900-
...SOUTHWEST COLORADO...

CITY           SKY/WX    TMP DP  RH WIND       PRES   REMARKS
DURANGO        FAIR      41  29  62 N5        30.24F
CORTEZ         FAIR      42  30  62 NE6       30.18S
PAGOSA SPRINGS FAIR      39  28  66 CALM      30.31F
TELLURIDE      FAIR      44  23  43 SE9       30.38F
WOLF CREEK PAS FAIR      34  18  51 SW15      30.54S WCI  24
$$

COZ009-010-012-014-032>034-037-058>063-050900-
...CENTRAL COLORADO...

CITY           SKY/WX    TMP DP  RH WIND       PRES   REMARKS
ASPEN          FAIR      40  26  57 SW8       30.28F
BUENA VISTA    FAIR      41  27  58 NW8       30.32S
COPPER MTN     NOT AVBL
BERTHOUD PASS  FAIR      32  23  69 W13       30.50F WCI  22
COTTONWOOD PAS FAIR      46  18  31 SW3       30.40S
GUNNISON       FAIR      37  28  70 E3        30.34S
KREMMLING      FAIR      34  27  75 CALM      30.29S
LEADVILLE      MOCLDY    28  19  69 CALM      30.39S
MONARCH PASS   FAIR      36  23  60 W14       30.60F
SALIDA         NOT AVBL
SUNLIGHT       FAIR      41  25  52 CALM      30.46S
WILKERSON PASS FAIR      36  23  60 SW6       30.48F
$$

COZ069>075-050900-
...SAN LUIS VALLEY/SANGRE DE CRISTO MOUNTAINS...

CITY           SKY/WX    TMP DP  RH WIND       PRES   REMARKS
ALAMOSA        FAIR      37  31  78 E7        30.28S
LA VETA PASS   FAIR      43  19  39 S14G23    30.39F
SAGUACHE       FAIR      41  32  70 N13       30.30S
$$

COZ035-036-038>040-050900-
...NORTHERN COLORADO FRONT RANGE...

CITY           SKY/WX    TMP DP  RH WIND       PRES   REMARKS
DENVER INTL AP FAIR      53  33  46 S14       30.13F
DMNS CITY PARK   N/A     54  32  43 S7        30.13F
AURORA         FAIR      49  35  58 S10       30.15F
FRONT RANGE AP NOT AVBL
ERIE MUNI ARPT FAIR      44  39  81 CALM      30.12F
BOULDER MUN AP FAIR      55  32  41 SW5       30.12F
CENTENNIAL     FAIR      48  33  56 S10       30.16F
BROOMFIELD     FAIR      52  34  50 SW3       30.15F
FORT COLLINS   FAIR      48  36  61 N7        30.13F
LONGMONT       FAIR      53  36  51 W7        30.13F
$$

COZ041-046-047-076>085-087-088-050900-
...PIKES PEAK/PALMER DIVIDE AND SOUTHERN FOOTHILLS...

CITY           SKY/WX    TMP DP  RH WIND       PRES   REMARKS
COLO. SPRINGS  FAIR      53  30  41 SE3       30.21F
A. F. ACADEMY  FAIR      37  32  81 N12       30.22F
SCHRIEVER AFB  NOT AVBL
ELLICOTT       FAIR     N/A N/A N/A NE5       30.19F
FALCON         NOT AVBL
FORT CARSON    FAIR      47  34  61 NW6       30.18F
LIMON          FAIR      38  37  97 N3        30.18F
MONUMENT HILL  FAIR      45  32  61 S8        30.25S
TRINIDAD       FAIR      54  29  38 SW5       30.15F
$$

COZ042>045-048>051-090-091-050900-
...NORTHEAST COLORADO...

CITY           SKY/WX    TMP DP  RH WIND       PRES   REMARKS
GREELEY ARPT   FAIR      48  39  71 NE8       30.12F
AKRON          FAIR      53  40  61 S13       30.13F
BURLINGTON     FAIR      51  40  65 S14       30.13F
WRAY           NOT AVBL
STERLING       FAIR      46  41  81 CALM      30.10F
HOLYOKE        NOT AVBL
FORT MORGAN    FAIR      51  40  65 SE7       30.13F
$$

COZ086-089-092>099-050900-
...SOUTHEAST COLORADO...

CITY           SKY/WX    TMP DP  RH WIND       PRES   REMARKS
PUEBLO         FAIR      53  38  56 N12       30.12F
LA JUNTA       FAIR      56  40  55 E7        30.10F
LAMAR          FAIR      50  43  77 E9        30.10F
SPRINGFIELD      N/A     45  40  82 SW8       30.15F
$$



USA.gov is the U.S. government's official web portal to all federal, state and local government web resources and services.